Location: Krasnoyarskiy Pitomnik
(51.1333°N, 71.6167°E)
Time: 19:10:19
(UTC+00:00)

Envisat - Pass Details

Date: 03 March 2024
Orbit: 762 x 764 km, 98.3° (Epoch: 13 April)

Event Time Altitude Azimuth Distance (km) Brightness Sun altitude
Rises 00:43:17 0° 3° (N) 3,244 6.3 -11.8°
Reaches altitude 10° 00:46:31 10° 341° (NNW) 2,312 5.3 -11.3°
Maximum altitude 00:49:20 15° 308° (NW) 1,971 4.7 -10.9°
Enters shadow 00:51:09 13° 284° (WNW) 2,116 4.7 -10.6°
